NUSAT-1 (FRESCO) (41557 NORAD) Tracking and Keplerian Element Data

This shows tracking and keplerian element data for the satellite.

Feedback or suggestion? Click here.




ElementValue
Catalog41557
NameNUSAT-1 (FRESCO)
Epoch Orbit29585
Epoch Day262.137952
Epoch Year2021
RAAN355.5803
Inclination97.3933
Eccentricity0.0011141
Argument of Perigee261.7109
Mean Anonmoly192.5515
Mean Motion15.29912222
Decay Rate2.566E-05
L11 41557U 16033B 21262.13795200 .00002566 00000-0 91119-4 0 9999
L22 41557 97.3933 355.5803 0011141 261.7109 192.5515 15.29912222295853

Live tracking and technical data element details for NUSAT-1 (FRESCO) (NORAD 41557). NUSAT-1 (FRESCO) can be tracked NOW for your location showing map with azimuth and elevation plus other details from your city location.

Track the satellite on the map from your city or location and see movement details for azimuth, elevation, latitude, longitude, range, height, and movement on the map or in text.







IsCatalogInMostPopularTable: catalog: 41557, numindb: 527
Update: records affected: 1



GetName: 41557 NUSAT-1 (FRESCO)

Hit Count: updated at: Fri, 24 Sep 2021 19:05:19 GMT